Regional Weather Roundup
Issued by NWS

Home | Current Version | Previous Version | Graphics & Text | Print | Product List | Glossary On
Versions: 1 2 3 4 5 6 7 8 9 10 11 12 13 14 15 16 17 18 19 20 21 22 23 24 25 26 27 28 29 30 31 32 33 34 35 36 37 38 39 40 41 42 43 44 45 46 47 48 49 50
000
ASUS43 KLOT 250809
RWRIL

ILLINOIS REGIONAL WEATHER ROUNDUP
NATIONAL WEATHER SERVICE CHICAGO/ROMEOVILLE IL
300 AM CDT TUE JUL 25 2017

NOTE: "FAIR" INDICATES FEW OR NO CLOUDS BELOW 12,000 FEET WITH NO
SIGNIFICANT WEATHER AND/OR OBSTRUCTIONS TO VISIBILITY.

* THESE STATIONS ARE NOT UNDER NWS QUALITY CONTROL. THEY ALSO MAY NOT
  REPORT WEATHER SUCH AS PRECIPITATION OR FOG.

ILZ001-002-007-009-015-016-024-250900-
NORTHWEST ILLINOIS

CITY           SKY/WX    TMP DP  RH WIND       PRES   REMARKS
MOLINE         CLEAR     62  58  86 E7        30.12S
STERLING*      CLEAR     58  57  97 CALM      30.15R
SAVANNA*       CLEAR     61  58  91 SE8       30.13F
$$

ILZ003-004-008-010-011-017-018-250900-
NORTH CENTRAL ILLINOIS

CITY           SKY/WX    TMP DP  RH WIND       PRES   REMARKS
ROCKFORD       CLEAR     61  57  87 CALM      30.16R
FREEPORT*      CLEAR     55  53  96 CALM      30.17R
ROCHELLE*      CLEAR     57  56  97 CALM      30.16R
DE KALB*       CLEAR     57  57  98 NE3       30.16R
PERU*          CLEAR    N/A N/A N/A CALM      30.15R
$$

ILZ005-006-012>014-019>023-250900-
NORTHEAST ILLINOIS

CITY           SKY/WX    TMP DP  RH WIND       PRES   REMARKS
CHICAGO-OHARE  PTCLDY    65  59  81 N3        30.13S
CHICAGO-MIDWAY PTCLDY    69  62  78 E3        30.13R
AURORA         PTCLDY    57  56  96 CALM      30.15R
LANSING*       CLEAR     62  59  88 E3        30.14S
JOLIET*        CLEAR     61  60  97 CALM      30.14R
WAUKEGAN       CLEAR     57  57 100 CALM      30.14R
DUPAGE AIRPORT CLEAR     58  58 100 N3        30.14R
WHEELING       CLEAR     62  62 100 CALM      30.15S
MORRIS*        CLEAR     59  58  95 CALM      30.13R
ROMEOVILLE*    CLEAR     62  58  88 E5        30.14R
NORTHERLY ISL    N/A     69  62  78 E3          N/A
$$

LMZ740>746-250900-
SOUTHERN LAKE MICHIGAN

STATION/POSITION SKY/WX   TEMP    WIND        PRES    VSBY  WAVE
                          AIR SEA DIR/SP/G                  HT/PER
                          (F)     (DEG/KT/KT) (MB)    (MI)  (FT/S)
SOUTHERN BUOY              70 71   40/  6/  8 1020.2F         2/ 6
WILMETTE HARBOR            70 72  110/  6/  8   N/A           3/ 6
HARRISON CRIB              71     110/  9/ 10   N/A
BURNHAM HARBOR             69                   N/A
CALUMET HARBOR             69     100/  5/  8 1019.9R
BURNS HARBOR               67     110/  9/ 11 1020.7S
MICHIGAN CITY              65      90/  7/  9   N/A
MICHIGAN CITY 6N           68 74  110/  8/ 10   N/A           3/ 6
ST. JOSEPH                 65 72  150/  8/  8 1020.3          2/ 5
$$

ILZ025>027-034>036-040-047-049-050-058-095>099-250900-
WEST-CENTRAL ILLINOIS

CITY           SKY/WX    TMP DP  RH WIND       PRES   REMARKS
QUINCY         CLEAR     68  65  90 E6        30.09S
GALESBURG*     CLEAR     63  60  90 E3        30.13S
MACOMB*        CLEAR     60  60  99 E3        30.13S FOG
JACKSONVILLE*  CLEAR     63  61  94 CALM      30.10S
PITTSFIELD*    CLEAR     67  66  95 E5        30.09F
$$

ILZ028>032-037-038-041>044-048-051>054-059>061-250900-
CENTRAL ILLINOIS

CITY           SKY/WX    TMP DP  RH WIND       PRES   REMARKS
PONTIAC        CLEAR     59  58  97 E3        30.14S FOG
BLOOMINGTON    CLEAR     59  58  96 NE6       30.14S
DECATUR        PTCLDY    62  60  93 E3        30.11S
PEORIA         CLEAR     64  61  90 E8        30.12F
LACON*         CLEAR     60  59  98 E5        30.13S
LINCOLN*       CLEAR     62  61  98 NE3       30.12S
SPRINGFIELD    MOCLDY    67  64  90 NE6       30.11S
TAYLORVILLE    CLOUDY    66  63  88 E7        30.10S
$$

ILZ033-039-045-046-055>057-062-063-250900-
EAST-CENTRAL ILLINOIS

CITY           SKY/WX    TMP DP  RH WIND       PRES   REMARKS
CHAMPAIGN      CLEAR     63  60  90 NE7       30.12S
RANTOUL*       CLEAR     64  62  95 E5        30.13S
MATTOON        CLEAR     64  63  96 NE5       30.10R
PARIS*         CLEAR     62  62  99 E5        30.12R
$$

ILZ079-100>102-250900-
SOUTHWEST ILLINOIS

CITY           SKY/WX    TMP DP  RH WIND       PRES   REMARKS
ALTON          PTCLDY    69  67  92 NE3       30.07S
BELLEVILLE     CLEAR     71  68  90 NE5       30.06F
CAHOKIA*       CLEAR     73  67  81 NE3       30.05S
SPARTA*        MOCLDY    72  68  86 E7        30.05S
$$

ILZ064>066-069>071-074>076-080>082-084>086-088>090-092>094-250900-
SOUTH-CENTRAL ILLINOIS

CITY           SKY/WX    TMP DP  RH WIND       PRES   REMARKS
CARBONDALE     PTCLDY    73  71  93 E7        30.03F
CAIRO*         CLOUDY    78  74  87 CALM      30.01F
EFFINGHAM*     CLEAR     67  65  94 NE5       30.10S
MARION         MOCLDY    75  73  94 NE5       30.05S
MT. VERNON     PTCLDY    71  67  87 NE7       30.06S
CENTRALIA*     PTCLDY    71  68  92 NE6       30.05S
SALEM*         MOCLDY    72  66  83 NE6       30.07S
METROPOLIS*    PTCLDY    74  73  96 CALM      30.03R
$$

ILZ067-068-072-073-078-083-087-091-250900-
SOUTHEAST ILLINOIS

CITY           SKY/WX    TMP DP  RH WIND       PRES   REMARKS
LAWRENCEVILLE  CLEAR     69  66  90 NE8       30.08R
FLORA*         MOCLDY    71  67  88 NE6       30.07S
FAIRFIELD*     MOCLDY    70  68  95 N3        30.06R
HARRISBURG*    MOCLDY    73  69  87 CALM      30.05R
ROBINSON*      CLEAR     65  64  97 NE3       30.11R
CARMI*         PTCLDY    70  68  94 CALM      30.05S
$$

ABBREVIATIONS USED IN REMARKS
   TC - TEMPERATURE IN CELSIUS
  WCI - WIND CHILL INDEX
   HX - HEAT INDEX
  VSB - VISIBILITY
$$




USA.gov is the U.S. government's official web portal to all federal, state and local government web resources and services.